Cloud_Cover
26 100 54 5 5 5 100 54 4 5 44 90 29 26 0 0 2 0 0 0 1 0 0 0 0 0 0 0 2 100 100 100 40 100 100 100 100 100 100 55 0 0 0 0
43 78 16 93 99 88 75 43 8 4 0 2 4 22 33 7 24 58 2 0 4 0 0 0 0 0 0 0 0 0 67 100 100 100 100 97 100 100 100 57 0 0 0 0
42 7 32 64 91 28 45 67 4 4 0 0 4 14 4 89 85 4 1 0 0 0 0 0 0 0 0 0 0 0 4 79 100 100 100 82 100 64 13 1 2 7 4 0
3 5 45 81 22 99 100 15 22 5 5 5 58 1 0 0 11 58 0 1 0 0 0 0 0 0 0 0 0 0 0 0 31 55 42 98 94 100 100 98 91 58 5 5
2 9 98 95 41 86 100 100 55 27 39 7 99 41 7 100 4 0 0 0 2 0 0 0 0 0 0 0 0 0 0 0 0 0 0 76 100 100 100 100 100 100 91 57
95 100 100 100 98 93 92 90 97 80 17 77 96 74 4 29 0 0 0 0 0 0 0 0 0 0 0 0 0 0 0 0 0 0 0 67 100 100 100 100 45 11 67 100
26 43 67 100 100 100 100 100 96 96 97 100 86 8 90 100 95 5 0 0 4 0 0 0 0 0 0 0 0 0 0 0 0 0 7 75 100 100 100 100 66 100 100 100
5 96 100 100 100 100 100 100 100 80 43 76 78 26 5 14 76 5 5 0 83 47 20 0 5 0 0 0 0 0 6 0 0 0 49 16 82 100 100 100 100 100 100 100
90 100 100 100 100 100 100 100 100 100 100 90 99 69 9 55 87 100 3 0 83 100 100 2 9 13 0 0 0 0 17 0 0 0 0 14 56 25 100 99 100 100 100 100
87 99 100 100 100 100 100 100 100 100 100 100 75 24 86 98 97 25 4 32 100 100 100 11 100 87 0 0 0 0 0 0 0 0 22 7 8 25 99 100 82 93 100 100
98 96 88 86 100 100 100 100 100 100 82 93 92 96 100 100 65 90 100 18 100 100 100 56 100 24 0 0 15 9 13 0 0 20 23 44 35 99 100 91 15 22 80 100
100 100 100 91 100 97 99 100 100 100 97 100 100 100 100 99 99 100 100 7 100 99 100 49 100 0 0 0 15 28 0 4 10 15 88 97 100 100 100 98 38 69 100 100
100 100 100 100 100 100 100 100 100 100 100 100 100 100 100 100 96 100 97 12 96 92 20 2 0 0 0 0 7 5 0 69 70 100 100 100 100 100 100 100 100 100 100 100
100 100 100 100 100 100 100 97 100 100 100 98 100 62 100 100 100 100 100 100 100 94 52 0 1 0 0 0 2 4 16 71 100 100 100 100 100 100 100 100 100 100 100 98
100 100 100 100 100 90 96 60 71 100 100 100 74 27 100 54 100 100 100 100 100 56 26 0 15 5 0 6 89 99 100 100 100 100 100 100 100 100 100 100 100 100 74 19
100 100 100 100 95 100 100 100 100 100 100 100 72 85 49 88 70 100 100 100 94 80 2 98 55 100 99 100 100 100 100 100 100 100 100 100 100 100 100 100 100 90 5 44
100 100 100 100 97 100 100 100 100 100 75 100 86 50 95 76 86 97 100 100 80 5 17 100 100 100 100 100 100 100 100 100 100 100 100 100 100 100 100 100 100 74 22 96
100 100 100 100 68 98 100 93 77 100 100 99 9 9 96 12 100 100 100 82 5 100 96 98 98 100 100 100 100 100 100 100 100 100 100 100 100 100 100 100 100 100 100 100
100 100 100 100 100 97 100 84 100 100 99 100 58 21 17 27 52 97 100 53 99 100 100 100 97 100 100 100 100 100 100 100 100 100 100 100 100 100 100 100 100 100 90 11
100 100 100 100 100 100 100 100 100 100 100 100 100 93 100 92 88 100 100 6 65 100 100 100 100 100 100 100 100 100 100 100 100 100 100 100 100 100 100 100 100 100 29 100
100 100 100 100 100 100 100 100 100 100 100 100 100 100 100 100 78 97 100 93 100 100 100 100 100 100 100 100 100 100 100 100 100 100 100 100 100 100 100 100 100 100 100 100
100 82 100 100 100 100 100 100 100 100 100 100 100 100 100 100 100 100 100 100 100 100 100 100 100 100 100 100 100 100 100 100 100 100 100 100 100 100 100 100 100 100 100 100
100 100 100 100 100 100 100 100 100 100 100 100 100 100 100 100 100 100 100 100 100 100 100 100 100 100 100 100 100 100 100 100 100 100 100 100 100 100 100 100 100 100 100 100
100 100 100 100 96 96 98 100 100 100 100 100 100 100 100 100 100 100 100 100 100 100 100 100 100 100 100 100 100 100 100 100 100 100 100 100 100 100 100 100 100 100 83 61
100 100 100 100 100 99 77 100 100 100 100 100 100 100 100 100 100 100 100 100 100 100 100 100 100 100 100 100 100 100 100 100 100 100 100 100 100 100 100 100 100 93 56 2
100 100 100 100 100 100 100 100 100 100 100 100 100 100 100 100 100 100 100 100 100 100 100 100 100 100 100 100 100 100 100 100 100 100 100 100 100 100 100 73 14 4 0 1